FW5345 Weather Reports


time (UTC)temp
C
wind
direction
speed
KPH
gust
KPH
rain 1hr
cm
rain 24hr
cm
rain mn
cm
humidity
%
barometer
mb
20260503223033 28 359 6.4 22.5 0.00 0.00 0.00 27 1012.1
20260503221535 28 2 4.8 12.9 0.00 0.00 0.00 27 1012.3
20260503220036 27 73 6.4 17.7 0.00 0.00 0.00 28 1012.5
20260503213034 27 38 6.4 14.5 0.00 0.00 0.00 28 1012.8
20260503204535 27 37 8.0 19.3 0.00 0.00 0.00 27 1013.5
20260503203032 27 19 4.8 12.9 0.00 0.00 0.00 27 1013.6
20260503201536 27 82 4.8 16.1 0.00 0.00 0.00 27 1013.8
20260503200142 26 70 8.0 32.2 0.00 0.00 0.00 28 1013.9
20260503194535 26 68 9.7 25.7 0.00 0.00 0.00 28 1014.1
20260503193037 26 92 11.3 22.5 0.00 0.00 0.00 29 1014.1
20260503191643 26 9 6.4 17.7 0.00 0.00 0.00 29 1014.3
20260503190035 26 22 6.4 17.7 0.00 0.00 0.00 31 1014.3
20260503184535 26 22 6.4 16.1 0.00 0.00 0.00 34 1014.4
20260503183034 25 355 9.7 22.5 0.00 0.00 0.00 40 1014.5
20260503181535 23 296 8.0 12.9 0.00 0.00 0.00 44 1014.7
20260503174536 22 312 6.4 11.3 0.00 0.00 0.00 48 1015.0
20260503173037 21 342 4.8 11.3 0.00 0.00 0.00 49 1015.2
20260503171534 21 345 1.6 6.4 0.00 0.00 0.00 50 1015.3
20260503160142 18 14 0.0 3.2 0.00 0.00 0.00 56 1015.5
20260503110141 10 158 6.4 6.4 0.00 0.00 0.00 76 1015.3
20260503081533 12 157 4.8 8.0 0.00 0.00 0.00 70 1015.3
20260503071533 12 151 4.8 8.0 0.00 0.00 0.00 73 1015.3
20260503054609 15 157 3.2 6.4 0.00 0.00 0.00 63 1015.2
20260503053035 16 124 1.6 4.8 0.00 0.00 0.00 59 1015.1
20260503051644 16 92 0.0 3.2 0.00 0.00 0.00 60 1015.1
20260503050148 17 90 0.0 4.8 0.00 0.00 0.00 56 1015.0
20260503044535 17 122 4.8 8.0 0.00 0.00 0.00 56 1015.0
20260503043034 18 136 6.4 9.7 0.00 0.00 0.00 54 1014.9
20260503041532 18 128 6.4 11.3 0.00 0.00 0.00 53 1014.8
20260503040043 18 137 6.4 11.3 0.00 0.00 0.00 52 1014.6
20260503034534 19 136 8.0 11.3 0.00 0.00 0.00 52 1014.4
20260503033032 20 135 6.4 9.7 0.00 0.00 0.00 52 1014.2
20260503031532 20 142 8.0 12.9 0.00 0.00 0.00 52 1013.9
20260503030144 20 136 6.4 9.7 0.00 0.00 0.00 53 1013.7
20260503024534 20 136 4.8 6.4 0.00 0.00 0.00 53 1013.5
20260503023032 21 134 3.2 6.4 0.00 0.00 0.00 50 1013.4
20260503021643 22 173 3.2 6.4 0.00 0.00 0.00 46 1013.4
20260503020038 23 173 1.6 6.4 0.00 0.00 0.00 42 1013.3
20260503014534 23 83 0.0 4.8 0.00 0.00 0.00 38 1013.2
20260503011537 24 26 3.2 8.0 0.00 0.00 0.00 36 1013.3
20260503010037 25 83 1.6 9.7 0.00 0.00 0.00 35 1013.3
20260503004640 25 69 4.8 12.9 0.00 0.00 0.00 34 1013.3
20260503003030 24 79 0.0 12.9 0.00 0.00 0.00 34 1013.4
20260503001536 25 97 6.4 12.9 0.00 0.00 0.00 34 1013.3
20260503000034 25 87 8.0 24.1 0.00 0.00 0.00 34 1013.4
20260502234535 25 74 8.0 22.5 0.00 0.00 0.00 34 1013.5
20260502233037 25 53 4.8 16.1 0.00 0.00 0.00 33 1013.6